Weather WX

World > North America > United States > Ohio

Niles, Ohio Regional Weather

Lat: 41.19N, Lon: 80.75W
Wx Zone: OHZ023
Warning FLW WEATHER ALERT - FLASH FLOOD WATCH (More Info. Click Here) Warning
Feedback

Niles, OH Regional Weather

Expires:201906160200;;135390
ASUS41 KCLE 160112
RWRCLE
OHIO REGIONAL WEATHER ROUNDUP
NATIONAL WEATHER SERVICE WILMINGTON, OH
900 PM EDT SAT JUN 15 2019

NOTE: "FAIR" INDICATES FEW OR NO CLOUDS BELOW 12,000 FEET WITH NO
SIGNIFICANT WEATHER AND/OR OBSTRUCTIONS TO VISIBILITY.


OHZ009>014-019>023-028>033-038-089-160200-
   NORTHEAST OHIO
  
CITY           SKY/WX    TMP DP  RH WIND       PRES   REMARKS
CLE-HOPKINS    CLOUDY    66  63  90 S9        29.89F                  
CLE-LAKEFRONT  CLOUDY    67  62  84 S13       29.86F                  
CUY CO. ARPT   CLOUDY    64  63  94 SW8       29.87F                  
LORAIN-ELYRIA  MOCLDY    65  60  84 SW5       29.88S                  
ASHTABULA      LGT RAIN  64  64 100 SW5       29.90S FOG              
AKRON-CANTON   CLOUDY    66  62  87 SW5       29.90F                  
WOOSTER        CLOUDY    65  64  97 S6        29.90F                  
MANSFIELD      CLOUDY    66  65  96 S13       29.88F                  
YOUNGSTOWN     LGT RAIN  64  61  90 SW6       29.91F FOG              
$$
 

SKY/WX - Weather  TMP - Temperature  DP - Dew Point  RH - Relative Humidity
WIND - Wind Direction/Speed PRES - Barometric Pressure VSB - Visibility
WCI - Wind Chill Index E13G22 Wind - East Wind 13 mph/Gusts of 22 mph